SCP
-0 -0 -0 -0 -0 -0 -0 -0 -0 -0 -0 -0 -0 -0 -0 -0 -0 -0 -0 -0 -0 -0 -0 -0 -0 -0 -0 0 0 -0 -0 -0 -0 -0 -0 -0 -0 -0 0 -0 0 0 0 0 0 0 0
-0 -0 -0 -0 -0 -0 -0 -0 -0 -0 -0 -0 -0 -0 -0 -0 -0 -0 -0 -0 -0 -0 -0 -0 -0 -0 0 -0 -0 -0 -0 -0 -0 -0 -0 -0 0 0 -0 0 0 0 0 -0 0 0 0
-0 -0 -0 -0 -0 -0 -0 -0 -0 -0 -0 -0 -0 -0 -0 -0 -0 -0 -0 -0 -0 -0 -0 -0 -0 -0 -0 -0 0 -0 -0 -0 -0 -0 -0 -0 0 0 -0 0 0 0 0 -0 0 0 0
-0 -0 -0 -0 -0 -0 -0 -0 -0 -0 -0 -0 -0 -0 -0 -0 -0 -0 -0 -0 -0 -0 -0 -0 -0 0 0 -0 0 -0 -0 -0 -0 0 0 0 -0 0 -0 0 -0 0 0 0 -0 -0 0
-0 -0 -0 -0 -0 -0 -0 -0 -0 -0 -0 -0 -0 -0 -0 -0 -0 -0 -0 -0 -0 -0 -0 0 0 0 -0 0 -0 -0 0 -0 -0 -0 -0 -0 -0 0 -0 -0 -0 0 0 0 0 0 0
-0 -0 -0 -0 -0 -0 -0 -0 -0 -0 -0 -0 -0 -0 -0 0 -0 -0 -0 -0 0 0 -0 0 0 -0 -0 0 -0 -0 0 -0 -0 -0 -0 0 -0 -0 -0 -0 0 0 0 0 0 0 -0
-0 -0 -0 -0 -0 -0 -0 -0 0 0 0 0 0 0 0 0 0 0 0 0 0 0 -0 -0 -0 0 -0 -0 -0 -0 -0 0 -0 -0 -0 -0 -0 -0 -0 -0 0 0 -0 0 0 -0 0
-0 0 0 0 0 0 0 0 0 0 0 0 0 0 0 0 0 0 0 0 0 0 -0 -0 -0 -0 0 -0 -0 -0 -0 -0 -0 -0 -0 0 -0 -0 -0 0 0 0 -0 0 0 -0 0
-0 0 0 0 0 0 0 -0 -0 -0 -0 -0 -0 -0 -0 0 0 0 0 -0 0 0 0 -0 -0 0 -0 0 -0 -0 -0 -0 -0 -0 0 -0 -0 0 -0 0 0 -0 -0 0 0 0 0
0 -0 -0 -0 -0 -0 -0 -0 -0 -0 -0 -0 -0 -0 -0 0 0 0 0 0 -0 -0 0 0 -0 -0 -0 0 0 0 -0 -0 0 0 -0 0 -0 -0 -0 0 -0 -0 0 0 -0 0 0
0 0 -0 -0 -0 -0 -0 -0 -0 -0 -0 -0 -0 -0 -0 -0 -0 0 -0 0 -0 -0 0 0 0 0 0 0 -0 0 0 -0 0 -0 0 0 -0 0 0 -0 -0 -0 -0 0 -0 0 0
0 0 0 -0 -0 -0 -0 -0 -0 -0 -0 -0 -0 -0 -0 0 0 -0 0 -0 -0 0 -0 0 0 0 -0 0 0 0 0 0 0 0 -0 0 -0 -0 0 -0 -0 -0 -0 -0 -0 0 0
0 0 0 -0 -0 -0 -0 -0 -0 -0 -0 -0 -0 -0 0 -0 0 -0 -0 -0 0 0 -0 0 0 -0 -0 -0 0 -0 -0 -0 -0 -0 0 -0 -0 0 0 -0 -0 -0 -0 0 -0 0 0
0 0 0 -0 -0 -0 -0 -0 -0 -0 -0 -0 -0 -0 -0 0 -0 0 0 0 0 -0 0 0 0 -0 -0 -0 -0 -0 -0 -0 -0 -0 -0 -0 0 -0 0 0 -0 -0 -0 0 0 0 0
0 -0 -0 -0 -0 -0 -0 -0 -0 -0 -0 -0 -0 -0 -0 -0 -0 0 -0 0 0 -0 0 0 -0 0 -0 -0 -0 -0 -0 -0 -0 -0 0 -0 -0 0 0 -0 -0 -0 -0 -0 -0 -0 -0
0 -0 -0 -0 -0 -0 -0 -0 -0 -0 -0 -0 -0 -0 -0 -0 -0 -0 0 -0 -0 -0 0 -0 -0 -0 0 -0 -0 -0 -0 -0 -0 -0 0 -0 -0 0 -0 -0 -0 -0 -0 -0 0 -0 -0
0 -0 -0 -0 -0 -0 -0 -0 -0 -0 -0 -0 -0 -0 -0 -0 -0 -0 -0 -0 -0 0 0 0 0 -0 0 0 0 0 -0 0 0 0 -0 0 -0 -0 0 0 0 -0 -0 -0 -0 -0 -0
0 0 -0 -0 -0 -0 -0 -0 -0 -0 -0 0 -0 -0 -0 -0 -0 -0 -0 -0 0 0 0 0 0 -0 0 0 -0 0 0 0 -0 0 0 0 0 -0 0 0 -0 -0 -0 0 0 0 0
0 0 0 -0 -0 -0 -0 -0 -0 -0 -0 -0 -0 -0 -0 -0 -0 -0 -0 0 0 0 0 0 0 0 0 0 0 0 0 0 0 0 0 0 0 0 0 0 0 0 0 0 -0 -0 0
0 0 0 0 -0 -0 -0 -0 -0 -0 -0 0 -0 -0 -0 -0 -0 -0 -0 -0 -0 0 0 0 0 0 0 0 0 0 0 0 0 0 0 0 0 -0 0 0 0 0 0 0 0 0 0
0 0 0 0 0 -0 -0 -0 -0 -0 -0 0 0 0 -0 0 0 -0 0 -0 0 0 0 0 0 0 0 0 0 0 -0 0 0 0 0 0 0 0 0 0 0 0 0 0 -0 0 -0
0 0 0 0 0 -0 -0 -0 -0 -0 -0 0 0 0 -0 -0 -0 0 0 0 0 0 0 0 0 0 0 0 0 0 0 0 0 0 0 0 0 0 0 0 0 0 0 -0 -0 0 -0
-0 0 0 0 0 -0 -0 -0 -0 -0 -0 0 0 0 0 0 0 0 0 0 0 0 0 0 0 0 0 0 0 0 0 0 0 0 0 0 0 0 0 0 0 0 0 -0 0 0 0
-0 0 0 -0 0 0 -0 -0 -0 -0 -0 0 0 0 0 0 0 0 0 0 0 0 0 0 0 0 0 0 0 0 0 0 0 0 0 0 0 0 0 0 0 0 0 0 0 0 0
-0 -0 0 -0 -0 -0 0 0 -0 -0 -0 0 0 0 0 0 0 0 0 0 0 0 0 0 0 0 0 0 0 0 0 0 0 0 0 0 0 0 0 0 0 0 0 -0 0 0 0
0 0 0 0 0 0 0 0 0 0 0 0 0 0 0 0 0 0 0 0 0 0 0 0 0 0 0 0 0 0 0 0 0 0 0 0 0 0 0 0 0 0 0 0 0 0 0
0 0 0 0 0 0 0 0 0 0 0 0 -0 0 0 0 0 0 0 0 0 0 0 0 0 0 0 0 0 0 0 0 0 0 0 0 0 0 0 0 0 0 0 0 0 0 1
0 0 0 0 0 0 0 0 0 0 0 0 -0 0 0 0 -0 0 0 0 0 0 0 0 0 0 0 0 0 0 0 0 0 0 0 0 0 0 0 0 0 0 0 0 1 1 2
0 0 0 0 0 0 0 0 0 0 0 0 0 0 0 0 -0 -0 -0 -0 0 0 0 0 0 0 0 0 0 0 0 0 0 0 0 0 0 0 0 0 0 0 0 0 1 1 1
Wind_Speed_500mb
33 33 33 32 31 29 28 27 25 24 22 21 21 20 19 17 16 15 14 14 13 12 11 11 10 10 12 16 40 17 16 30 28 26 25 23 25 25 28 21 13 11 27 8 11 5 11
32 32 32 31 30 29 29 29 27 26 25 24 22 21 21 19 18 16 16 15 14 13 11 10 9 11 13 30 9 9 7 27 28 29 24 25 24 23 26 32 6 14 23 29 8 6 8
34 33 32 31 30 30 29 29 29 29 28 26 25 23 22 22 20 18 16 15 14 13 10 9 9 11 18 35 8 13 18 26 30 29 29 23 24 23 30 23 12 18 23 17 14 11 6
35 35 34 33 32 32 32 31 31 30 29 28 27 25 24 23 21 19 17 15 14 12 9 7 7 10 20 17 21 19 21 25 30 28 28 25 13 25 36 27 25 24 29 6 28 16 13
35 35 36 35 34 34 35 34 34 33 31 30 29 28 26 25 22 19 16 13 12 11 9 7 5 10 33 25 28 22 22 27 29 28 25 17 19 30 38 29 29 21 6 29 16 6 12
36 37 37 37 37 37 37 38 38 36 33 32 30 29 28 26 23 18 14 11 11 13 12 14 18 16 35 25 25 26 23 22 27 27 25 23 28 24 29 25 20 5 18 26 5 7 18
39 38 37 38 39 39 40 41 41 40 37 35 33 30 27 27 23 17 10 8 11 9 29 28 24 24 11 25 25 26 24 20 26 30 27 34 24 28 39 25 2 18 23 27 4 11 24
41 40 40 40 40 40 41 42 43 42 40 39 35 31 26 26 24 19 18 19 10 18 19 49 42 38 1 27 22 24 25 25 30 28 31 29 28 34 35 13 15 23 31 6 10 10 15
43 42 42 42 42 41 41 42 41 40 38 39 38 33 25 24 24 25 26 32 13 15 19 34 50 38 30 20 33 37 35 33 26 29 32 33 41 29 27 16 20 33 36 9 3 29 24
44 43 44 44 44 43 43 44 44 42 40 40 38 31 22 18 11 9 16 13 22 10 12 22 40 38 36 27 31 34 36 33 31 26 31 31 36 15 21 26 26 30 11 17 24 12 10
47 47 47 47 46 46 46 46 46 45 43 42 37 30 23 17 8 3 4 5 9 8 10 25 28 21 32 39 2 27 25 35 34 25 21 27 26 29 21 27 22 21 17 23 24 28 16
48 48 49 49 49 49 48 47 47 46 45 41 34 23 11 8 18 16 3 6 7 12 17 19 21 20 29 35 30 24 24 30 27 27 28 29 34 18 28 25 28 17 26 25 29 21 18
51 49 50 50 51 51 50 49 48 48 45 37 23 12 4 21 8 11 9 13 12 18 12 20 26 26 33 31 33 22 22 26 23 19 27 29 30 28 25 32 13 27 28 5 10 11 8
55 52 52 52 53 55 55 54 51 48 42 30 6 11 2 21 9 11 16 15 14 17 13 13 2 30 30 30 28 26 23 24 29 33 33 24 29 38 32 31 28 31 29 10 30 17 19
57 55 55 55 56 59 60 60 54 47 41 15 3 11 3 6 14 15 22 18 13 19 24 15 13 19 27 30 29 32 26 30 29 35 24 32 29 37 29 29 29 31 28 36 26 37 21
56 56 58 59 60 61 63 63 58 47 34 2 5 14 3 10 15 15 15 29 36 14 11 24 24 15 24 33 32 26 27 28 27 26 23 24 26 16 30 33 36 29 29 24 17 18 24
54 57 60 62 63 63 63 63 62 49 25 2 12 14 8 13 15 18 17 24 9 8 8 16 23 32 15 25 18 27 29 19 27 16 28 22 26 27 11 12 24 23 25 21 26 22 22
51 56 60 64 66 66 64 61 61 53 24 11 18 6 12 17 20 25 21 14 12 17 17 11 17 23 30 34 30 17 32 20 28 9 8 16 15 21 30 22 31 33 35 23 14 19 17
46 53 58 62 66 67 65 60 54 51 42 30 20 6 7 16 12 16 17 8 11 17 19 16 17 20 23 26 27 25 25 30 20 22 17 17 11 19 27 28 15 20 15 26 34 29 24
46 49 54 58 63 66 66 61 51 36 32 26 16 6 18 19 28 22 24 23 20 12 10 25 18 27 29 24 26 29 30 17 15 6 16 13 28 31 23 9 13 30 42 34 35 22 26
45 49 51 56 58 63 65 63 53 33 19 24 9 13 17 11 14 23 23 26 24 26 14 8 13 25 24 26 29 29 32 29 21 16 12 14 28 34 37 31 9 20 29 35 25 35 42
43 46 47 52 55 58 62 62 57 43 20 13 20 15 33 35 29 18 17 20 23 19 25 19 25 20 25 15 27 33 37 28 27 21 22 20 29 30 43 46 45 44 20 38 43 29 68
41 43 43 48 52 53 57 58 55 51 29 16 30 18 20 25 21 17 12 19 27 23 18 29 26 24 21 18 28 41 45 44 33 33 24 16 16 24 37 36 31 39 31 49 40 46 33
39 40 40 43 48 49 50 53 50 41 31 22 28 26 24 17 17 11 23 23 24 24 27 33 34 26 27 44 44 46 47 48 48 42 44 33 28 24 25 28 43 38 38 44 8 8 24
39 40 38 41 43 45 44 47 46 37 27 20 29 20 18 16 34 20 23 21 26 24 25 29 28 24 27 31 25 23 24 34 41 41 41 38 31 28 28 32 42 46 41 42 27 13 16
35 37 39 39 41 40 39 41 43 36 27 11 21 18 19 22 18 21 24 21 15 17 20 21 3 15 23 19 18 26 23 28 21 23 38 40 35 27 29 39 45 30 38 48 28 21 19
35 37 37 40 36 36 36 38 38 34 26 22 7 26 18 28 20 12 19 19 22 20 15 20 14 24 25 14 18 22 25 28 28 32 34 22 8 25 28 36 36 14 40 57 17 9 11
34 35 37 34 35 35 35 37 35 33 26 20 10 19 20 21 46 28 20 22 19 21 16 30 19 2 19 12 15 18 18 20 24 26 28 27 23 21 20 17 35 57 21 31 17 20 14
35 33 33 35 34 35 36 33 32 29 23 20 16 20 24 30 45 44 43 39 34 28 25 22 27 18 12 12 16 18 22 20 29 21 18 12 13 13 17 13 20 40 16 46 47 27 20
Wind_Direction_500mb
27 25 24 23 20 16 12 8 4 1 356 348 340 334 328 323 315 306 298 295 296 302 298 293 278 247 231 247 255 253 255 215 210 208 221 244 247 267 274 320 176 47 316 331 67 170 261
22 19 18 16 15 13 10 6 3 1 357 353 344 335 327 319 310 301 295 291 291 296 290 290 272 237 224 249 150 258 258 205 203 205 224 243 257 303 308 283 251 1 302 281 144 114 241
18 16 14 11 8 4 2 359 356 355 354 352 348 341 331 321 310 300 291 285 282 286 280 286 267 242 248 232 211 224 216 207 203 213 230 237 264 288 277 291 13 281 272 276 116 237 182
16 13 11 8 5 1 357 351 347 345 345 343 341 340 335 326 314 300 290 284 276 275 264 270 260 248 257 256 245 226 213 211 210 218 236 273 268 269 277 276 281 248 265 3 230 194 167
8 7 6 3 359 356 353 348 342 337 334 332 332 332 331 331 321 304 288 278 269 261 245 247 219 254 261 206 221 211 202 202 206 218 232 259 262 262 269 247 269 210 67 281 152 243 170
3 1 360 357 353 349 346 342 339 334 328 325 324 323 323 327 326 308 288 269 259 246 236 238 232 254 241 222 194 194 195 198 203 213 226 232 244 246 244 251 275 252 253 270 71 205 237
1 356 354 352 349 347 343 340 337 333 330 323 320 319 317 317 320 304 265 230 265 235 213 223 171 226 122 200 175 190 193 210 201 214 229 222 240 238 247 250 242 303 284 293 112 236 236
359 355 352 350 348 345 342 340 338 334 330 324 318 315 310 307 310 291 245 217 352 322 288 238 243 238 224 155 177 198 196 212 210 229 218 246 225 248 264 316 308 281 265 354 300 258 222
359 355 351 349 347 344 343 340 337 334 328 321 318 315 309 304 305 287 247 232 306 305 277 275 215 226 207 213 222 199 194 213 220 224 234 235 244 210 245 268 244 248 258 120 228 258 71
1 357 353 350 347 345 345 343 341 336 331 324 320 313 304 297 323 353 258 262 250 286 278 220 196 219 218 210 237 241 190 216 240 244 223 244 250 266 270 258 263 280 28 280 232 279 232
1 358 356 353 350 348 347 347 343 338 331 326 321 313 299 251 228 186 57 170 191 237 278 128 175 234 202 199 264 190 189 215 243 229 263 244 230 253 234 254 272 300 298 297 273 257 148
2 1 1 358 354 351 350 349 345 340 332 328 324 318 296 221 228 181 186 218 180 230 255 155 143 187 189 208 204 147 185 224 247 267 263 258 282 264 248 247 248 282 293 269 261 19 338
5 7 5 1 356 355 353 351 348 342 334 331 330 333 255 164 53 213 197 190 221 248 121 159 173 196 212 192 235 162 197 204 233 221 242 242 246 258 259 258 229 239 254 360 279 46 258
8 9 7 1 358 357 356 353 352 346 338 336 342 350 130 185 186 175 185 220 259 231 293 48 322 168 214 213 211 184 211 232 215 262 283 240 214 212 214 236 257 236 279 205 274 168 230
9 11 9 3 359 359 358 357 356 353 342 346 34 54 23 327 166 178 216 223 267 8 358 3 220 254 194 221 232 202 209 234 236 210 247 282 308 179 208 212 225 257 251 290 295 292 311
9 11 8 3 359 359 359 359 358 359 347 318 273 230 88 174 176 174 240 260 300 14 344 304 284 201 260 203 219 235 226 213 232 263 227 276 293 209 189 199 218 248 303 301 315 322 336
6 8 8 4 1 360 360 0 358 4 360 251 280 236 153 155 167 226 249 255 337 35 324 292 284 302 293 292 299 231 246 242 235 255 218 242 273 299 215 187 247 217 241 238 257 273 296
1 2 5 4 2 1 360 2 1 2 14 315 294 293 151 164 209 220 248 295 357 287 276 264 284 294 304 308 311 248 273 255 1 289 272 256 250 250 243 213 222 247 242 279 245 262 243
355 356 359 1 2 1 0 1 5 360 4 348 304 5 176 194 261 289 259 262 279 295 293 282 276 276 279 294 292 294 299 91 268 294 9 312 267 263 275 270 318 281 274 282 299 267 288
348 350 353 356 359 1 0 360 2 6 357 348 296 256 161 208 260 275 301 313 291 139 300 278 308 304 299 292 277 277 277 306 130 269 358 305 272 289 281 342 5 317 311 320 329 306 307
340 344 348 351 355 359 1 0 3 7 25 359 294 15 2 296 31 346 330 315 306 298 280 275 285 284 273 280 291 280 265 243 226 196 230 255 261 278 284 283 186 315 299 321 308 302 297
331 337 343 348 350 356 360 2 2 8 36 15 352 351 340 301 290 296 276 265 285 311 319 316 283 308 306 305 344 331 340 325 319 209 198 246 260 269 274 280 293 168 248 311 269 264 292
324 328 336 345 347 352 358 2 4 9 23 20 358 338 305 295 282 301 357 337 333 350 313 301 289 305 294 5 337 316 308 303 300 305 300 285 273 282 278 294 293 271 210 213 234 290 323
321 325 328 337 342 345 353 0 5 9 21 21 349 334 303 299 306 337 347 324 308 311 309 306 318 311 301 310 313 304 283 276 274 271 270 270 255 263 271 269 268 279 273 287 314 58 328
317 320 322 329 335 337 346 355 1 5 11 32 1 352 331 310 316 313 353 340 308 288 261 268 280 287 308 303 292 283 273 254 255 261 260 252 260 258 259 256 269 272 282 292 305 1 348
312 315 317 321 328 333 339 349 354 357 2 19 8 349 320 297 38 340 312 285 292 318 314 281 305 314 306 286 277 269 264 280 277 280 228 244 243 242 248 256 261 273 285 288 313 288 162
309 311 311 314 324 328 332 342 348 351 353 5 2 341 337 297 283 351 330 324 314 322 300 301 357 306 298 257 271 270 274 275 264 266 278 290 289 280 257 246 250 294 341 273 270 314 28
306 308 311 314 322 322 324 333 341 344 345 355 311 335 345 305 286 299 302 292 294 266 287 349 312 22 277 275 276 284 282 281 280 269 273 281 280 258 244 284 279 4 0 317 6 90 51
299 304 308 307 313 320 319 324 332 337 334 335 327 314 311 292 267 290 284 273 261 263 282 291 302 313 312 320 334 325 314 321 323 296 313 323 8 339 330 291 330 350 355 356 356 20 20
Wind_Speed_850mb
33 33 33 32 31 29 28 27 25 24 22 21 21 20 19 17 16 15 14 14 13 12 11 11 10 10 12 16 40 17 16 30 28 26 25 23 25 25 28 21 13 11 27 8 11 5 11
32 32 32 31 30 29 29 29 27 26 25 24 22 21 21 19 18 16 16 15 14 13 11 10 9 11 13 30 9 9 7 27 28 29 24 25 24 23 26 32 6 14 23 29 8 6 8
34 33 32 31 30 30 29 29 29 29 28 26 25 23 22 22 20 18 16 15 14 13 10 9 9 11 18 35 8 13 18 26 30 29 29 23 24 23 30 23 12 18 23 17 14 11 6
35 35 34 33 32 32 32 31 31 30 29 28 27 25 24 23 21 19 17 15 14 12 9 7 7 10 20 17 21 19 21 25 30 28 28 25 13 25 36 27 25 24 29 6 28 16 13
35 35 36 35 34 34 35 34 34 33 31 30 29 28 26 25 22 19 16 13 12 11 9 7 5 10 33 25 28 22 22 27 29 28 25 17 19 30 38 29 29 21 6 29 16 6 12
36 37 37 37 37 37 37 38 38 36 33 32 30 29 28 26 23 18 14 11 11 13 12 14 18 16 35 25 25 26 23 22 27 27 25 23 28 24 29 25 20 5 18 26 5 7 18
39 38 37 38 39 39 40 41 41 40 37 35 33 30 27 27 23 17 10 8 11 9 29 28 24 24 11 25 25 26 24 20 26 30 27 34 24 28 39 25 2 18 23 27 4 11 24
41 40 40 40 40 40 41 42 43 42 40 39 35 31 26 26 24 19 18 19 10 18 19 49 42 38 1 27 22 24 25 25 30 28 31 29 28 34 35 13 15 23 31 6 10 10 15
43 42 42 42 42 41 41 42 41 40 38 39 38 33 25 24 24 25 26 32 13 15 19 34 50 38 30 20 33 37 35 33 26 29 32 33 41 29 27 16 20 33 36 9 3 29 24
44 43 44 44 44 43 43 44 44 42 40 40 38 31 22 18 11 9 16 13 22 10 12 22 40 38 36 27 31 34 36 33 31 26 31 31 36 15 21 26 26 30 11 17 24 12 10
47 47 47 47 46 46 46 46 46 45 43 42 37 30 23 17 8 3 4 5 9 8 10 25 28 21 32 39 2 27 25 35 34 25 21 27 26 29 21 27 22 21 17 23 24 28 16
48 48 49 49 49 49 48 47 47 46 45 41 34 23 11 8 18 16 3 6 7 12 17 19 21 20 29 35 30 24 24 30 27 27 28 29 34 18 28 25 28 17 26 25 29 21 18
51 49 50 50 51 51 50 49 48 48 45 37 23 12 4 21 8 11 9 13 12 18 12 20 26 26 33 31 33 22 22 26 23 19 27 29 30 28 25 32 13 27 28 5 10 11 8
55 52 52 52 53 55 55 54 51 48 42 30 6 11 2 21 9 11 16 15 14 17 13 13 2 30 30 30 28 26 23 24 29 33 33 24 29 38 32 31 28 31 29 10 30 17 19
57 55 55 55 56 59 60 60 54 47 41 15 3 11 3 6 14 15 22 18 13 19 24 15 13 19 27 30 29 32 26 30 29 35 24 32 29 37 29 29 29 31 28 36 26 37 21
56 56 58 59 60 61 63 63 58 47 34 2 5 14 3 10 15 15 15 29 36 14 11 24 24 15 24 33 32 26 27 28 27 26 23 24 26 16 30 33 36 29 29 24 17 18 24
54 57 60 62 63 63 63 63 62 49 25 2 12 14 8 13 15 18 17 24 9 8 8 16 23 32 15 25 18 27 29 19 27 16 28 22 26 27 11 12 24 23 25 21 26 22 22
51 56 60 64 66 66 64 61 61 53 24 11 18 6 12 17 20 25 21 14 12 17 17 11 17 23 30 34 30 17 32 20 28 9 8 16 15 21 30 22 31 33 35 23 14 19 17
46 53 58 62 66 67 65 60 54 51 42 30 20 6 7 16 12 16 17 8 11 17 19 16 17 20 23 26 27 25 25 30 20 22 17 17 11 19 27 28 15 20 15 26 34 29 24
46 49 54 58 63 66 66 61 51 36 32 26 16 6 18 19 28 22 24 23 20 12 10 25 18 27 29 24 26 29 30 17 15 6 16 13 28 31 23 9 13 30 42 34 35 22 26
45 49 51 56 58 63 65 63 53 33 19 24 9 13 17 11 14 23 23 26 24 26 14 8 13 25 24 26 29 29 32 29 21 16 12 14 28 34 37 31 9 20 29 35 25 35 42
43 46 47 52 55 58 62 62 57 43 20 13 20 15 33 35 29 18 17 20 23 19 25 19 25 20 25 15 27 33 37 28 27 21 22 20 29 30 43 46 45 44 20 38 43 29 68
41 43 43 48 52 53 57 58 55 51 29 16 30 18 20 25 21 17 12 19 27 23 18 29 26 24 21 18 28 41 45 44 33 33 24 16 16 24 37 36 31 39 31 49 40 46 33
39 40 40 43 48 49 50 53 50 41 31 22 28 26 24 17 17 11 23 23 24 24 27 33 34 26 27 44 44 46 47 48 48 42 44 33 28 24 25 28 43 38 38 44 8 8 24
39 40 38 41 43 45 44 47 46 37 27 20 29 20 18 16 34 20 23 21 26 24 25 29 28 24 27 31 25 23 24 34 41 41 41 38 31 28 28 32 42 46 41 42 27 13 16
35 37 39 39 41 40 39 41 43 36 27 11 21 18 19 22 18 21 24 21 15 17 20 21 3 15 23 19 18 26 23 28 21 23 38 40 35 27 29 39 45 30 38 48 28 21 19
35 37 37 40 36 36 36 38 38 34 26 22 7 26 18 28 20 12 19 19 22 20 15 20 14 24 25 14 18 22 25 28 28 32 34 22 8 25 28 36 36 14 40 57 17 9 11
34 35 37 34 35 35 35 37 35 33 26 20 10 19 20 21 46 28 20 22 19 21 16 30 19 2 19 12 15 18 18 20 24 26 28 27 23 21 20 17 35 57 21 31 17 20 14
35 33 33 35 34 35 36 33 32 29 23 20 16 20 24 30 45 44 43 39 34 28 25 22 27 18 12 12 16 18 22 20 29 21 18 12 13 13 17 13 20 40 16 46 47 27 20
Wind_Direction_850mb
27 25 24 23 20 16 12 8 4 1 356 348 340 334 328 323 315 306 298 295 296 302 298 293 278 247 231 247 255 253 255 215 210 208 221 244 247 267 274 320 176 47 316 331 67 170 261
22 19 18 16 15 13 10 6 3 1 357 353 344 335 327 319 310 301 295 291 291 296 290 290 272 237 224 249 150 258 258 205 203 205 224 243 257 303 308 283 251 1 302 281 144 114 241
18 16 14 11 8 4 2 359 356 355 354 352 348 341 331 321 310 300 291 285 282 286 280 286 267 242 248 232 211 224 216 207 203 213 230 237 264 288 277 291 13 281 272 276 116 237 182
16 13 11 8 5 1 357 351 347 345 345 343 341 340 335 326 314 300 290 284 276 275 264 270 260 248 257 256 245 226 213 211 210 218 236 273 268 269 277 276 281 248 265 3 230 194 167
8 7 6 3 359 356 353 348 342 337 334 332 332 332 331 331 321 304 288 278 269 261 245 247 219 254 261 206 221 211 202 202 206 218 232 259 262 262 269 247 269 210 67 281 152 243 170
3 1 360 357 353 349 346 342 339 334 328 325 324 323 323 327 326 308 288 269 259 246 236 238 232 254 241 222 194 194 195 198 203 213 226 232 244 246 244 251 275 252 253 270 71 205 237
1 356 354 352 349 347 343 340 337 333 330 323 320 319 317 317 320 304 265 230 265 235 213 223 171 226 122 200 175 190 193 210 201 214 229 222 240 238 247 250 242 303 284 293 112 236 236
359 355 352 350 348 345 342 340 338 334 330 324 318 315 310 307 310 291 245 217 352 322 288 238 243 238 224 155 177 198 196 212 210 229 218 246 225 248 264 316 308 281 265 354 300 258 222
359 355 351 349 347 344 343 340 337 334 328 321 318 315 309 304 305 287 247 232 306 305 277 275 215 226 207 213 222 199 194 213 220 224 234 235 244 210 245 268 244 248 258 120 228 258 71
1 357 353 350 347 345 345 343 341 336 331 324 320 313 304 297 323 353 258 262 250 286 278 220 196 219 218 210 237 241 190 216 240 244 223 244 250 266 270 258 263 280 28 280 232 279 232
1 358 356 353 350 348 347 347 343 338 331 326 321 313 299 251 228 186 57 170 191 237 278 128 175 234 202 199 264 190 189 215 243 229 263 244 230 253 234 254 272 300 298 297 273 257 148
2 1 1 358 354 351 350 349 345 340 332 328 324 318 296 221 228 181 186 218 180 230 255 155 143 187 189 208 204 147 185 224 247 267 263 258 282 264 248 247 248 282 293 269 261 19 338
5 7 5 1 356 355 353 351 348 342 334 331 330 333 255 164 53 213 197 190 221 248 121 159 173 196 212 192 235 162 197 204 233 221 242 242 246 258 259 258 229 239 254 360 279 46 258
8 9 7 1 358 357 356 353 352 346 338 336 342 350 130 185 186 175 185 220 259 231 293 48 322 168 214 213 211 184 211 232 215 262 283 240 214 212 214 236 257 236 279 205 274 168 230
9 11 9 3 359 359 358 357 356 353 342 346 34 54 23 327 166 178 216 223 267 8 358 3 220 254 194 221 232 202 209 234 236 210 247 282 308 179 208 212 225 257 251 290 295 292 311
9 11 8 3 359 359 359 359 358 359 347 318 273 230 88 174 176 174 240 260 300 14 344 304 284 201 260 203 219 235 226 213 232 263 227 276 293 209 189 199 218 248 303 301 315 322 336
6 8 8 4 1 360 360 0 358 4 360 251 280 236 153 155 167 226 249 255 337 35 324 292 284 302 293 292 299 231 246 242 235 255 218 242 273 299 215 187 247 217 241 238 257 273 296
1 2 5 4 2 1 360 2 1 2 14 315 294 293 151 164 209 220 248 295 357 287 276 264 284 294 304 308 311 248 273 255 1 289 272 256 250 250 243 213 222 247 242 279 245 262 243
355 356 359 1 2 1 0 1 5 360 4 348 304 5 176 194 261 289 259 262 279 295 293 282 276 276 279 294 292 294 299 91 268 294 9 312 267 263 275 270 318 281 274 282 299 267 288
348 350 353 356 359 1 0 360 2 6 357 348 296 256 161 208 260 275 301 313 291 139 300 278 308 304 299 292 277 277 277 306 130 269 358 305 272 289 281 342 5 317 311 320 329 306 307
340 344 348 351 355 359 1 0 3 7 25 359 294 15 2 296 31 346 330 315 306 298 280 275 285 284 273 280 291 280 265 243 226 196 230 255 261 278 284 283 186 315 299 321 308 302 297
331 337 343 348 350 356 360 2 2 8 36 15 352 351 340 301 290 296 276 265 285 311 319 316 283 308 306 305 344 331 340 325 319 209 198 246 260 269 274 280 293 168 248 311 269 264 292
324 328 336 345 347 352 358 2 4 9 23 20 358 338 305 295 282 301 357 337 333 350 313 301 289 305 294 5 337 316 308 303 300 305 300 285 273 282 278 294 293 271 210 213 234 290 323
321 325 328 337 342 345 353 0 5 9 21 21 349 334 303 299 306 337 347 324 308 311 309 306 318 311 301 310 313 304 283 276 274 271 270 270 255 263 271 269 268 279 273 287 314 58 328
317 320 322 329 335 337 346 355 1 5 11 32 1 352 331 310 316 313 353 340 308 288 261 268 280 287 308 303 292 283 273 254 255 261 260 252 260 258 259 256 269 272 282 292 305 1 348
312 315 317 321 328 333 339 349 354 357 2 19 8 349 320 297 38 340 312 285 292 318 314 281 305 314 306 286 277 269 264 280 277 280 228 244 243 242 248 256 261 273 285 288 313 288 162
309 311 311 314 324 328 332 342 348 351 353 5 2 341 337 297 283 351 330 324 314 322 300 301 357 306 298 257 271 270 274 275 264 266 278 290 289 280 257 246 250 294 341 273 270 314 28
306 308 311 314 322 322 324 333 341 344 345 355 311 335 345 305 286 299 302 292 294 266 287 349 312 22 277 275 276 284 282 281 280 269 273 281 280 258 244 284 279 4 0 317 6 90 51
299 304 308 307 313 320 319 324 332 337 334 335 327 314 311 292 267 290 284 273 261 263 282 291 302 313 312 320 334 325 314 321 323 296 313 323 8 339 330 291 330 350 355 356 356 20 20